Flag for Lebanon Weather past 2 weeks in Beirut, Lebanon

Now
79 °F

Passing clouds.


Feels Like: 81 °F
Forecast: 77 / 85 °F
Wind: 7 mph from Southeast

Location: Beirut Airport

Current Time: Jul 26, 2014 at 3:01:14 AM

Latest Report: Jul 26, 2014 at 2:00 AM


Visibility: 5 mi

Pressure: 29.77 "Hg

Humidity: 65%

Dew point: 66 °F

Location of BeirutLocation

Historic Weather in Beirut — Graph

°F

Beirut temperature yesterday

Maximum temperature yesterday: 86 °F (at 3:00 PM)
Minimum temperature yesterday: 77 °F (at 1:00 AM)
Average temperature yesterday: 81 °F

Past Weeks' High & Low Weather Summary

 TemperatureHumidityPressure
High86 °F (Jul 12, 2:00 PM)84% (Jul 23, 11:00 PM)29.92 "Hg (Jul 23, 11:00 PM)
Low75 °F (Jul 18, 6:00 AM)48% (Jul 13, 12:00 AM)29.71 "Hg (Jul 21, 4:00 AM)
Average81 °F65%29.81 "Hg
* Reported Jul 11 2:00 AM — Jul 26 2:00 AM, Beirut, Weather by CustomWeather, © 2014

Note: Actual official high and low records may vary slightly from our data, if they occured in-between our weather recording intervals... More about our weather records

Advertising

Beirut weather history for previous 24 hours

 ConditionsComfort  
Time TempWeatherWind HumidityBarometerVisibility
2:00 AM
Jul 26
79 °FPassing clouds.7 mph65%29.77 "Hg5 mi
1:00 AM79 °FPassing clouds.7 mph65%29.77 "Hg5 mi
12:00 AM81 °FPassing clouds.7 mph62%29.77 "Hg5 mi
11:00 PM
Jul 25
81 °FPassing clouds.8 mph62%29.77 "Hg5 mi
10:00 PM81 °FPassing clouds.7 mph62%29.77 "Hg5 mi
9:00 PM81 °FPassing clouds.7 mph66%29.77 "Hg5 mi
8:00 PM81 °FScattered clouds.8 mph66%29.77 "Hg5 mi
7:00 PM82 °FScattered clouds.8 mph62%29.74 "HgN/A
6:00 PM82 °FScattered clouds.9 mph62%29.74 "HgN/A
5:00 PM84 °FScattered clouds.9 mph58%29.74 "HgN/A
4:00 PM84 °FPassing clouds.13 mph58%29.77 "HgN/A
3:00 PM86 °FPassing clouds.13 mph55%29.77 "HgN/A
2:00 PM84 °FPassing clouds.13 mph58%29.77 "HgN/A
1:00 PM84 °FPassing clouds.12 mph55%29.77 "HgN/A
12:00 PM84 °FPassing clouds.12 mph58%29.77 "HgN/A
11:00 AM82 °FScattered clouds.15 mph62%29.77 "HgN/A
10:00 AM84 °FScattered clouds.12 mph58%29.77 "HgN/A
9:00 AM82 °FPassing clouds.12 mph55%29.77 "HgN/A
8:00 AM81 °FPassing clouds.12 mph62%29.77 "HgN/A
7:00 AM77 °FPassing clouds.7 mph65%29.74 "HgN/A
6:00 AM77 °FPassing clouds.7 mph69%29.74 "Hg5 mi
5:00 AM77 °FPassing clouds.7 mph74%29.74 "Hg5 mi
4:00 AM77 °FPassing clouds.7 mph74%29.74 "Hg5 mi
3:00 AM77 °FPassing clouds.6 mph74%29.74 "HgN/A
Weather by CustomWeather, © 2014

See weather overviewHow to use our weather pages